[[{"header":{"parameterUnit":"m.s-1","parameterCategory":1,"la1":30.2991,"la2":30.254,"lo1":-89.0895,"lo2":-89.0444,"dy":0.0017,"dx":0.0017,"nx":28,"ny":28,"refTime":"2025-11-09T09:00:00:Z","depth":0,"parameterNumber":2,"parameterNumberName":"U-component_of_WINDS"},"data":[0,0,0,0,0,0,0,0,0,0,0,0,0,0,0,0,0,0,0,0,0,0,0,0,0,0,0,0,0,0,0,0,0,0,0,0,0,0,0,0,0,0,0,0,0,0,0,0,0,0,0,0,0,0,0,0,0,0,0.9757,0.9757,0,0.9756,0.9756,0.9756,0.9757,0.9757,0.9757,0.9757,0.9755,0.9754,0.9754,0,0,0,0,0,0,0,0,0,0,0,0,0,0.9759,0.9759,0.9757,0.9757,0.9757,0.9756,0.9756,0.9756,0.9757,0.9757,0.9757,0.9757,0.9755,0.9754,0.9754,0,0,0,0,0,0,0,0,0,0,0,0,0,0.9758,0.9759,0.9757,0.9757,0.9758,0.9756,0.9756,0.9756,0.9757,0.9757,0.9757,0.9757,0.9755,0.9754,0.9754,0.9752,0,0,0.9754,0.9754,0,0,0,0,0,0,0,0,0.9758,0.9758,0.9757,0.9757,0.9757,0.9757,0.9756,0.9755,0.9757,0.9757,0.9757,0.9757,0.9755,0.9755,0.9755,0.9752,0.9752,0.9754,0.9754,0.9754,0.9754,0,0,0,0,0,0,0,0.9758,0.9758,0.9757,0.9757,0.9757,0.9758,0.9758,0.9756,0.9756,0.9757,0.9757,0.9757,0.9755,0.9755,0.9755,0.9752,0.9754,0.9754,0.9754,0.9753,0.9749,0.9749,0,0,0,0,0,0,0.9759,0.9758,0.9757,0.9757,0.9758,0.9758,0.9757,0.9757,0.9756,0.9756,0.9757,0.9757,0.9755,0.9755,0.9754,0.9753,0.9754,0.9753,0.9753,0.9749,0.9749,0.9749,0,0,0,0,0,0,0.9759,0.9758,0.9757,0.9758,0.9757,0.9757,0.9757,0.9757,0.9757,0.9756,0.9756,0.9757,0.9755,0.9755,0.9753,0.9753,0.9753,0.9753,0.9749,0.9749,0.9749,0.9749,0,0,0,0,0,0,0.9759,0.9758,0.9757,0.9758,0.9757,0.9755,0.9757,0.9757,0.9756,0.9757,0.9755,0.9755,0.9755,0.9754,0.9753,0.9752,0.9753,0.9749,0.9749,0.9749,0.9749,0.9748,0.9748,0,0,0,0,0,0.9759,0.9756,0.9757,0.9757,0.9756,0.9755,0.9755,0.9756,0.9756,0.9756,0.9756,0.9755,0.9753,0.9753,0.9753,0.9752,0.9749,0.9749,0.9749,0.9749,0.9748,0.9748,0,0,0,0,0,0,0.9755,0.9756,0.9757,0.9755,0.9755,0.9756,0.9754,0.9755,0.9755,0.9755,0.9755,0.9754,0.9753,0.9753,0.9753,0.9751,0.9751,0.9751,0.9751,0.9751,0.9751,0.975,0.9753,0,0,0,0,0,0.9754,0.9754,0.9755,0.9753,0.9753,0.9754,0.9753,0.9754,0.9754,0.9754,0.9753,0.9753,0.9752,0.9752,0.9751,0.9749,0.9749,0.9749,0.9748,0.9748,0.9748,0.9748,0.9748,0.9749,0.9749,0.9749,0,0,0.9752,0.9753,0.9752,0.9752,0.9752,0.9752,0.9754,0.9753,0.9753,0.9753,0.9752,0.9752,0.9752,0.9751,0.975,0.975,0.9748,0.9748,0.9748,0.9748,0.9748,0.9748,0.9748,0.9749,0.9749,0.9749,0,0,0.9747,0.9748,0.9747,0.9747,0.9748,0.9749,0.9749,0.975,0.975,0.975,0.9751,0.9751,0.9749,0.9749,0.9749,0.9748,0.9748,0.9748,0.9747,0.9747,0.9747,0.9747,0.9746,0.9746,0.9747,0.9747,0.9747,0,0.9744,0.9743,0.9746,0.9745,0.9746,0.9748,0.9747,0.9748,0.9748,0.9748,0.9749,0.9749,0.9748,0.9748,0.9748,0.9748,0.9748,0.9747,0.9747,0.9747,0.9746,0.9746,0.9746,0.9747,0.9747,0.9747,0.9747,0,0.974,0.974,0.9739,0.974,0.9741,0.974,0.9742,0.9743,0.9744,0.9745,0.9745,0.9746,0.9746,0.9746,0.9746,0.9746,0.9746,0.9747,0.9747,0.9746,0.9746,0.9746,0.9747,0.9747,0.9747,0.9747,0,0,0.973,0.9735,0.9735,0.9736,0.9739,0.9738,0.9739,0.974,0.974,0.9741,0.9741,0.9742,0.9743,0.9743,0.9744,0.9744,0.9744,0.9745,0.9745,0.9745,0.9744,0.9743,0.9743,0.9745,0.9745,0.9745,0.9744,0,0.9726,0.9727,0.973,0.9729,0.973,0.9734,0.9734,0.9736,0.9737,0.9738,0.974,0.974,0.9742,0.9742,0.9743,0.9744,0.9744,0.9744,0.9745,0.9745,0.9744,0.9743,0.9741,0.9741,0.9744,0.9744,0.9744,0,0.972,0.9722,0.9722,0.9727,0.9727,0.9727,0.9729,0.973,0.9733,0.9734,0.9735,0.9737,0.9738,0.974,0.9741,0.9741,0.9742,0.9743,0.9743,0.9743,0.9744,0.9742,0.974,0.974,0.9744,0.9744,0.9744,0,0.9714,0.9717,0.9717,0.9718,0.9723,0.9723,0.9725,0.9728,0.9729,0.9731,0.9732,0.9734,0.9735,0.9737,0.974,0.974,0.9741,0.9743,0.9742,0.9742,0.9741,0.9741,0.9739,0.9743,0.9743,0.9743,0.9743,0,0.9708,0.9708,0.9715,0.9715,0.9715,0.972,0.972,0.9722,0.9725,0.9726,0.973,0.9731,0.9735,0.9736,0.9738,0.974,0.974,0.9741,0.9742,0.9741,0.974,0.974,0.974,0.9743,0.9743,0.9743,0.9743,0,0.97,0.9704,0.9705,0.9711,0.9712,0.9712,0.9717,0.9718,0.9721,0.9722,0.9723,0.9727,0.973,0.9733,0.9736,0.9738,0.9739,0.974,0.9738,0.9738,0.9738,0.9738,0.9735,0.9735,0.9739,0.9739,0.9739,0,0.9695,0.9696,0.9702,0.9703,0.9705,0.9707,0.9709,0.9714,0.9716,0.972,0.9721,0.9724,0.9726,0.973,0.9733,0.9736,0.9737,0.9736,0.9737,0.9737,0.9737,0.9737,0.9737,0.9735,0.9735,0.9735,0.9735,0,0.9687,0.969,0.9693,0.9697,0.9699,0.9702,0.9705,0.9706,0.9712,0.9714,0.9717,0.9719,0.9723,0.9726,0.973,0.9732,0.9735,0.9735,0.9735,0.9734,0.9732,0.9733,0.9737,0.9735,0.9735,0.9735,0.9735,0.9735,0.968,0.9681,0.9686,0.969,0.9693,0.9697,0.9698,0.9702,0.9705,0.9709,0.9712,0.9715,0.972,0.9726,0.9728,0.9731,0.9732,0.9732,0.9731,0.9731,0.9731,0.9733,0.9731,0.9731,0.9732,0.9732,0.9732,0,0.9672,0.9676,0.968,0.9685,0.9688,0.9692,0.9696,0.9698,0.9701,0.9705,0.9708,0.9713,0.9716,0.9721,0.9725,0.9727,0.9728,0.9727,0.9727,0.9728,0.973,0.9729,0.9726,0.9726,0.9726,0.9726,0.9726,0.9726,0.9668,0.967,0.9674,0.9679,0.9683,0.9686,0.9689,0.9692,0.9696,0.9701,0.9704,0.9708,0.9713,0.9718,0.9722,0.9723,0.9724,0.9723,0.9725,0.9727,0.9727,0.9728,0.9727,0.9724,0.9724,0.9722,0.9722,0.9722]},{"header":{"parameterUnit":"m.s-1","parameterCategory":1,"la1":30.2991,"la2":30.254,"lo1":-89.0895,"lo2":-89.0444,"dy":0.0017,"dx":0.0017,"nx":28,"ny":28,"refTime":"2025-11-09T09:00:00:Z","depth":0,"parameterNumber":3,"parameterNumberName":"V-component_of_WINDS"},"data":[0,0,0,0,0,0,0,0,0,0,0,0,0,0,0,0,0,0,0,0,0,0,0,0,0,0,0,0,0,0,0,0,0,0,0,0,0,0,0,0,0,0,0,0,0,0,0,0,0,0,0,0,0,0,0,0,0,0,-8.1304,-8.1306,0,-8.1513,-8.1515,-8.1518,-8.1412,-8.1406,-8.1401,-8.1396,-8.1603,-8.1614,-8.1624,0,0,0,0,0,0,0,0,0,0,0,0,0,-8.0805,-8.0815,-8.1303,-8.1306,-8.1309,-8.1513,-8.1515,-8.1518,-8.1413,-8.1406,-8.1399,-8.1393,-8.16,-8.1612,-8.1625,0,0,0,0,0,0,0,0,0,0,0,0,0,-8.1019,-8.0818,-8.1303,-8.1281,-8.1281,-8.1512,-8.1515,-8.1519,-8.1414,-8.1406,-8.1398,-8.139,-8.1596,-8.1611,-8.1627,-8.189,0,0,-8.1676,-8.1683,0,0,0,0,0,0,0,0,-8.1007,-8.1037,-8.1281,-8.1283,-8.1283,-8.1428,-8.1416,-8.1643,-8.1416,-8.1363,-8.1395,-8.1386,-8.1551,-8.157,-8.1627,-8.19,-8.1909,-8.1677,-8.1687,-8.1694,-8.1698,0,0,0,0,0,0,0,-8.0992,-8.1028,-8.1386,-8.1285,-8.1286,-8.1258,-8.1279,-8.1458,-8.1501,-8.1367,-8.136,-8.1387,-8.155,-8.1612,-8.1632,-8.1912,-8.1677,-8.1691,-8.1701,-8.1707,-8.2409,-8.2418,0,0,0,0,0,0,-8.0979,-8.1016,-8.1379,-8.1392,-8.1122,-8.1274,-8.1297,-8.139,-8.1498,-8.1507,-8.1393,-8.1381,-8.1589,-8.1613,-8.1638,-8.1953,-8.1694,-8.1709,-8.1718,-8.24,-8.2411,-8.2421,0,0,0,0,0,0,-8.0969,-8.1013,-8.1371,-8.1202,-8.1246,-8.1291,-8.1395,-8.1398,-8.146,-8.1518,-8.1525,-8.145,-8.1584,-8.1616,-8.1829,-8.1959,-8.1716,-8.173,-8.239,-8.2404,-8.2416,-8.2586,0,0,0,0,0,0,-8.0955,-8.101,-8.1112,-8.1206,-8.1255,-8.156,-8.1404,-8.1408,-8.1489,-8.1475,-8.1573,-8.1581,-8.158,-8.1805,-8.1845,-8.1977,-8.1743,-8.2378,-8.2396,-8.2412,-8.2569,-8.2604,-8.2633,0,0,0,0,0,-8.0938,-8.115,-8.1118,-8.1162,-8.1384,-8.1568,-8.1596,-8.1592,-8.15,-8.1602,-8.1639,-8.1578,-8.1939,-8.1828,-8.1871,-8.201,-8.237,-8.2391,-8.2411,-8.2554,-8.2597,-8.2633,0,0,0,0,0,0,-8.1069,-8.1162,-8.1127,-8.1376,-8.1466,-8.155,-8.1678,-8.1637,-8.1752,-8.1734,-8.1721,-8.1745,-8.1965,-8.2009,-8.1884,-8.227,-8.214,-8.217,-8.2234,-8.2275,-8.2306,-8.2291,-8.1756,0,0,0,0,0,-8.1127,-8.127,-8.1343,-8.1556,-8.1603,-8.1633,-8.1713,-8.1702,-8.1793,-8.1829,-8.1882,-8.1971,-8.2103,-8.2191,-8.2317,-8.2574,-8.2593,-8.2691,-8.2723,-8.2749,-8.2775,-8.2914,-8.2958,-8.2488,-8.2488,-8.2488,0,0,-8.1248,-8.1316,-8.1407,-8.1584,-8.1652,-8.1799,-8.1666,-8.1827,-8.1935,-8.1853,-8.2058,-8.21,-8.2197,-8.2434,-8.254,-8.2476,-8.2909,-8.2775,-8.2796,-8.2808,-8.2939,-8.2984,-8.3023,-8.2502,-8.25,-8.2497,0,0,-8.1543,-8.1611,-8.1795,-8.1866,-8.1971,-8.199,-8.2034,-8.2126,-8.2151,-8.2357,-8.2298,-8.2425,-8.2655,-8.2727,-8.2794,-8.3117,-8.3064,-8.3157,-8.3326,-8.3461,-8.3498,-8.3531,-8.3646,-8.3687,-8.3183,-8.3184,-8.3184,0,-8.168,-8.1902,-8.1894,-8.2061,-8.214,-8.2074,-8.226,-8.2328,-8.2468,-8.2523,-8.245,-8.2737,-8.2798,-8.305,-8.3129,-8.3185,-8.3234,-8.3146,-8.3494,-8.3527,-8.3557,-8.3666,-8.3709,-8.3194,-8.3193,-8.3192,-8.3191,0,-8.2064,-8.2218,-8.2354,-8.2494,-8.2587,-8.2762,-8.278,-8.2875,-8.2856,-8.2882,-8.3092,-8.3163,-8.3302,-8.336,-8.3342,-8.361,-8.3567,-8.3495,-8.3363,-8.3613,-8.3715,-8.3757,-8.3209,-8.3206,-8.3202,-8.32,0,0,-8.2448,-8.2582,-8.2632,-8.2694,-8.2805,-8.2923,-8.3094,-8.3232,-8.3314,-8.3412,-8.3554,-8.375,-8.3684,-8.3759,-8.3748,-8.3867,-8.4118,-8.378,-8.3782,-8.384,-8.4416,-8.447,-8.4519,-8.4084,-8.4092,-8.4098,-8.4408,0,-8.2752,-8.3054,-8.3053,-8.3331,-8.3473,-8.3413,-8.3561,-8.3644,-8.3673,-8.3795,-8.3825,-8.3965,-8.3867,-8.3912,-8.4027,-8.4063,-8.4233,-8.4041,-8.4215,-8.4221,-8.4193,-8.4573,-8.4631,-8.492,-8.4448,-8.4455,-8.446,0,-8.3146,-8.326,-8.3554,-8.3644,-8.3703,-8.3837,-8.3963,-8.4082,-8.4173,-8.4185,-8.4271,-8.4242,-8.4413,-8.4277,-8.4513,-8.4382,-8.4453,-8.4481,-8.4492,-8.4508,-8.4356,-8.4599,-8.5012,-8.5055,-8.4523,-8.4518,-8.4513,0,-8.3397,-8.3623,-8.3828,-8.3883,-8.3993,-8.4089,-8.4138,-8.4222,-8.4305,-8.4414,-8.4468,-8.4595,-8.4664,-8.4762,-8.4767,-8.4668,-8.5005,-8.4869,-8.5018,-8.5019,-8.5092,-8.5088,-8.5523,-8.5138,-8.5138,-8.5137,-8.5136,0,-8.3737,-8.3918,-8.3942,-8.4069,-8.427,-8.4265,-8.4464,-8.4504,-8.458,-8.4711,-8.4665,-8.4789,-8.4788,-8.4913,-8.4918,-8.5112,-8.5143,-8.5157,-8.5156,-8.5162,-8.516,-8.5208,-8.5188,-8.5148,-8.5146,-8.5143,-8.5141,0,-8.4051,-8.4075,-8.4294,-8.4381,-8.4406,-8.4551,-8.4624,-8.4743,-8.4767,-8.4933,-8.4972,-8.501,-8.5155,-8.517,-8.5337,-8.534,-8.5575,-8.5552,-8.5545,-8.5541,-8.569,-8.5676,-8.6171,-8.6235,-8.5809,-8.5813,-8.5816,0,-8.4266,-8.4405,-8.4507,-8.4593,-8.4649,-8.4787,-8.4872,-8.4872,-8.4961,-8.5076,-8.5181,-8.5322,-8.5435,-8.567,-8.571,-8.5838,-8.5818,-8.5983,-8.5837,-8.5838,-8.5821,-8.5813,-8.5826,-8.6011,-8.6016,-8.602,-8.6023,0,-8.4646,-8.465,-8.4775,-8.4906,-8.5009,-8.511,-8.5205,-8.5277,-8.5288,-8.5391,-8.554,-8.5628,-8.5801,-8.5941,-8.6067,-8.6115,-8.6071,-8.6068,-8.611,-8.6117,-8.6107,-8.6114,-8.5622,-8.6057,-8.6053,-8.6051,-8.6049,-8.6048,-8.4917,-8.5037,-8.5128,-8.5269,-8.5341,-8.5431,-8.5547,-8.5586,-8.5711,-8.5854,-8.5845,-8.6009,-8.6096,-8.6261,-8.6319,-8.6446,-8.639,-8.645,-8.6465,-8.648,-8.6496,-8.6087,-8.6468,-8.6467,-8.6466,-8.6466,-8.6465,0,-8.5294,-8.5349,-8.5479,-8.5614,-8.5725,-8.5676,-8.5778,-8.5873,-8.6019,-8.6105,-8.6217,-8.6388,-8.6524,-8.6576,-8.6708,-8.6799,-8.6782,-8.6834,-8.6827,-8.6839,-8.6538,-8.6489,-8.6845,-8.6845,-8.6845,-8.6845,-8.6845,-8.6845,-8.5503,-8.5704,-8.572,-8.5956,-8.6009,-8.6172,-8.6234,-8.6316,-8.6385,-8.6578,-8.6692,-8.6725,-8.6797,-8.6934,-8.7055,-8.7066,-8.7117,-8.7178,-8.7181,-8.6898,-8.686,-8.6823,-8.6777,-8.7189,-8.7189,-8.7471,-8.7474,-8.7476]}]]